SCP
0 0 0 0 0 0 0 0 0 0 0 0 0 0 0 0 0 0 1 1 1 1 1 1 1 1 1 1 1 1 1 1 1 1 1 1 1 1
0 0 0 0 0 0 0 0 0 0 0 0 0 0 0 0 0 1 1 1 1 1 1 1 1 1 1 1 1 1 1 1 1 1 1 1 1 1
0 0 0 0 0 0 0 0 0 0 0 0 0 0 0 0 0 1 1 1 1 1 1 1 1 1 1 1 1 1 1 1 1 1 1 1 1 1
0 0 0 0 0 0 0 0 0 0 0 0 0 0 0 0 0 0 1 1 1 1 1 2 1 0 0 1 1 1 0 0 0 0 1 1 1 1
0 0 0 0 0 0 0 0 0 0 0 0 0 0 0 0 0 0 0 1 1 1 2 4 2 0 0 0 0 0 0 0 0 0 0 1 1 1
0 0 0 0 0 0 0 0 0 0 0 0 0 0 0 0 0 0 0 1 1 1 2 2 1 0 0 0 0 0 0 0 0 0 0 0 0 0
0 0 0 0 0 0 0 0 0 0 0 0 0 0 0 0 0 0 0 0 1 1 1 0 0 0 0 0 0 0 0 0 0 0 0 0 0 0
0 0 0 0 0 0 0 0 0 0 0 0 0 0 0 0 0 0 0 0 0 0 0 0 0 0 0 0 0 0 0 0 0 0 0 0 0 0
0 0 0 0 0 0 0 0 0 0 0 0 0 0 0 0 0 0 0 0 0 0 0 0 0 0 1 1 0 0 0 0 0 0 0 0 0 0
0 0 0 0 0 0 0 0 0 0 0 0 0 0 0 0 0 0 0 0 0 0 0 0 0 0 1 1 0 0 0 0 0 0 0 0 0 0
0 0 0 0 0 0 0 0 0 0 0 0 0 0 0 0 0 0 0 0 0 0 0 0 0 0 1 1 0 0 0 0 0 0 0 0 0 0
0 0 0 0 0 0 0 0 0 0 0 0 0 0 0 0 0 0 0 0 0 0 0 0 0 0 1 1 0 0 0 0 0 0 0 0 0 0
0 0 0 0 0 0 0 0 0 0 0 0 0 0 0 0 0 0 0 0 0 0 0 0 0 0 0 0 0 0 0 0 0 0 0 0 0 0
0 0 0 0 0 0 0 0 0 0 0 0 0 0 0 0 0 0 0 0 0 0 0 0 0 0 0 0 0 0 0 0 0 0 0 0 0 0
0 0 0 0 0 0 0 0 0 0 0 0 0 0 0 0 0 0 0 0 0 0 0 0 0 0 0 0 0 0 0 0 0 0 0 0 0 0
0 0 0 0 0 0 0 0 0 0 0 0 0 0 0 0 0 0 0 0 0 0 0 0 0 0 0 0 0 0 0 0 0 0 0 0 0 0
0 0 0 0 0 0 0 0 0 0 0 0 0 0 0 0 0 0 0 0 0 0 0 0 0 0 0 0 0 0 0 0 0 0 0 0 0 0
0 0 0 0 0 0 0 0 0 0 0 0 0 0 0 0 0 0 0 0 0 0 0 0 0 0 0 0 0 0 0 0 0 0 0 0 0 0
0 0 0 0 0 0 0 0 0 0 0 0 0 0 0 0 0 0 0 0 0 0 0 0 0 0 0 0 0 0 0 0 0 0 0 0 0 0
0 0 0 0 0 0 0 0 0 0 0 0 0 0 0 0 0 0 0 0 0 0 0 0 0 0 0 0 0 0 0 0 0 0 0 0 0 0
0 0 0 0 0 0 0 0 0 0 0 0 0 0 0 0 0 0 0 0 0 0 0 0 0 0 0 0 0 0 0 0 0 0 0 0 0 0
0 0 0 0 0 0 0 0 0 0 0 0 0 0 0 0 0 0 0 0 0 0 0 0 0 0 0 0 0 0 0 0 0 0 0 0 0 0
0 0 0 0 0 0 0 0 0 0 0 0 0 0 0 0 0 0 0 0 0 0 0 0 0 0 0 0 0 0 0 0 0 0 0 0 0 0
Wind_Speed
3 3 3 3 3 3 3 4 4 3 3 4 3 3 3 4 6 7 7 14 18 18 18 17 16 16 16 15 15 14 14 14 14 14 13 13 12 12
2 3 3 2 3 3 3 3 4 4 4 3 3 2 3 4 6 6 7 11 16 17 17 17 17 16 16 15 14 14 13 13 13 14 13 12 12 11
3 3 4 3 2 2 3 3 3 4 5 3 2 2 3 3 3 4 5 6 7 15 16 17 17 17 17 16 15 14 14 14 14 14 14 13 13 12
4 4 4 3 2 2 2 3 3 4 4 4 3 3 4 4 5 5 5 5 5 11 16 17 17 17 17 16 16 15 15 14 14 14 14 14 14 13
4 4 4 3 3 2 3 3 3 3 3 4 3 2 2 3 3 4 4 4 5 8 12 15 16 17 16 16 16 15 15 15 15 15 15 14 14 14
4 4 4 3 4 3 3 3 3 3 3 3 3 2 2 2 3 3 4 4 5 5 6 8 11 15 16 16 16 16 16 16 15 15 15 14 14 14
4 4 4 5 6 4 3 3 3 3 3 3 3 3 3 3 4 3 4 3 4 4 4 5 6 7 10 14 16 17 17 17 17 16 15 15 14 14
5 5 5 5 5 5 5 5 5 5 5 4 4 5 5 4 4 4 4 4 4 4 5 5 5 7 7 7 12 16 18 18 17 17 16 16 15 15
4 4 4 4 4 3 4 5 5 7 8 6 6 6 5 5 5 5 5 5 4 4 4 5 5 6 6 7 14 17 18 18 18 17 17 16 16 15
4 4 4 4 4 4 3 3 4 4 5 5 6 6 6 5 6 6 5 3 2 2 4 4 4 4 4 5 13 17 17 17 17 17 17 16 15 15
5 4 4 4 7 6 3 3 4 4 5 7 7 8 8 9 7 4 4 4 3 3 3 3 3 2 3 4 7 14 15 16 16 17 17 16 15 14
4 4 6 6 7 6 3 3 5 5 4 4 5 6 6 7 10 8 7 6 3 3 4 5 4 3 2 2 4 6 8 11 14 15 15 15 15 9
4 4 4 9 9 9 6 5 8 6 4 4 4 4 3 4 5 6 6 6 5 4 5 5 4 4 3 2 2 4 5 5 7 8 12 15 16 12
4 4 5 10 11 10 7 7 9 7 3 3 4 4 4 4 4 5 6 6 6 5 7 6 4 6 5 4 3 3 4 5 5 6 6 11 13 13
5 8 10 11 10 7 7 9 6 3 3 3 4 4 4 4 3 3 4 4 4 4 6 6 5 5 5 5 5 4 4 5 6 6 7 7 7 7
5 7 10 9 6 7 6 5 3 3 3 4 4 4 3 3 3 3 3 3 3 3 4 6 6 7 5 4 5 5 5 6 7 7 6 6 6 6
4 3 3 4 4 4 3 3 3 3 3 3 4 4 3 4 3 3 3 3 4 4 4 4 4 4 4 5 5 6 6 5 6 8 7 7 7 7
3 2 4 4 5 5 5 5 4 4 4 4 4 4 4 4 4 3 3 4 5 5 5 4 4 3 2 2 5 6 7 6 5 7 6 7 7 7
4 4 5 5 6 5 5 5 5 4 4 4 4 5 4 4 4 4 4 4 4 5 5 5 6 6 7 6 5 7 7 6 6 6 6 6 7 7
4 4 5 6 6 6 6 6 6 5 4 4 4 5 4 4 4 5 5 5 5 4 5 5 6 7 7 6 4 5 9 7 7 8 6 4 2 3
6 5 5 6 6 6 6 6 6 6 5 4 4 5 5 5 5 5 5 7 6 5 7 7 6 7 3 4 3 3 4 7 7 6 7 5 4 4
6 6 6 6 6 7 6 6 6 6 6 5 4 4 4 5 6 6 6 6 6 6 6 4 5 5 5 6 6 5 4 4 3 5 8 8 7 8
5 5 5 6 6 6 6 7 8 6 6 7 6 5 4 4 5 5 6 6 6 6 6 5 5 5 5 5 5 5 6 6 4 4 3 4 6 6
Wind_Direction
266 259 242 237 228 220 206 190 188 217 240 231 220 211 207 205 203 201 205 207 208 206 204 202 200 200 201 202 203 202 200 198 194 191 195 197 196 194
282 281 268 250 240 223 216 211 200 200 227 231 218 214 212 219 201 197 205 208 210 208 205 203 201 200 200 199 198 196 194 193 191 192 194 195 193 190
308 298 285 270 248 232 220 212 206 199 227 243 218 212 204 217 207 205 202 203 208 209 208 206 203 201 200 198 196 195 193 192 192 192 193 193 190 188
309 305 295 291 267 244 224 221 215 206 212 235 223 206 213 212 207 204 210 209 207 211 210 208 205 201 200 199 197 195 194 193 192 191 191 192 192 193
293 291 286 288 279 260 238 227 221 218 210 223 230 209 213 204 201 207 207 209 210 211 211 210 206 203 201 199 197 195 194 193 191 189 190 192 193 194
292 288 280 266 264 260 250 236 225 220 214 224 232 220 214 201 187 197 206 206 208 202 205 206 206 204 202 201 199 196 194 192 190 189 189 190 190 191
302 295 288 281 275 262 253 230 215 217 218 221 229 221 211 195 202 194 205 200 207 193 187 197 199 205 204 205 203 200 196 193 192 191 190 188 187 188
302 305 300 293 296 296 289 260 226 219 221 216 223 225 224 213 202 197 194 194 213 192 186 201 194 205 205 203 201 198 197 195 193 191 189 186 186 188
295 299 307 313 320 301 298 298 274 254 234 218 220 226 222 212 198 202 203 202 211 185 177 205 198 209 202 201 195 196 196 194 192 190 189 187 187 188
299 291 291 300 302 296 288 295 286 277 258 240 229 231 228 218 205 206 204 203 212 188 173 201 196 206 197 200 196 195 194 193 191 190 189 187 186 186
301 298 293 290 298 302 284 285 291 286 272 258 249 245 240 227 204 184 186 192 216 208 183 182 180 180 190 204 199 194 192 191 190 190 189 186 184 183
299 297 294 290 296 297 274 269 277 278 280 283 271 264 248 227 211 203 198 201 199 207 188 173 170 159 185 202 191 189 193 193 188 187 186 184 180 178
288 292 290 297 297 291 275 255 260 267 265 262 265 259 246 228 217 210 203 201 201 212 185 168 167 167 170 171 183 185 184 185 187 189 187 183 180 178
272 278 283 294 297 293 280 267 269 272 256 255 258 251 241 234 225 216 211 211 211 208 187 177 176 177 169 167 181 175 181 182 180 184 185 183 184 185
267 279 289 296 300 296 280 280 278 259 250 255 256 250 240 233 221 215 212 207 208 203 191 197 188 178 177 177 171 168 170 184 185 184 183 184 185 180
285 294 299 299 295 287 288 284 264 246 242 246 252 252 242 226 219 211 213 201 202 207 196 195 193 182 185 179 174 176 174 177 182 187 182 184 183 186
303 312 320 322 322 314 306 294 279 266 254 245 245 252 245 235 228 213 208 200 206 204 194 186 184 183 186 176 182 187 179 180 180 178 178 187 195 194
340 325 318 314 309 305 301 299 287 271 262 252 247 247 243 233 229 219 212 214 217 211 201 186 172 168 173 215 196 183 184 184 178 177 177 186 199 199
8 340 332 327 321 314 305 295 287 279 267 257 250 246 242 233 224 223 221 224 227 215 202 188 188 191 200 206 203 192 183 177 172 180 188 189 198 197
7 346 337 333 330 328 323 315 307 300 282 265 257 250 240 233 227 224 223 223 224 218 207 199 200 202 207 199 183 191 187 176 179 186 187 182 174 165
355 349 343 339 334 330 328 325 319 313 307 292 272 258 248 237 234 228 224 221 219 216 215 214 208 189 161 142 158 178 187 188 178 177 171 163 166 171
352 348 345 343 340 338 333 330 329 327 322 312 298 284 269 251 241 233 227 222 220 218 218 207 170 167 179 192 196 183 174 171 178 174 174 170 169 184
348 346 345 343 340 339 341 340 337 335 333 325 313 298 283 273 261 245 233 225 221 217 210 198 184 186 197 196 193 183 178 174 166 166 194 209 204 196